Regional Weather Roundup
Issued by NWS

Home | Current Version | Previous Version | Text Only | Print | Product List | Glossary Off
Versions: 1 2 3 4 5 6 7 8 9 10 11 12 13 14 15 16 17 18 19 20 21 22 23 24 25 26 27 28 29 30 31 32 33 34 35 36 37 38 39 40 41 42 43 44 45 46 47 48 49 50

000
ASUS45 KBOU 160910
RWRCO

WEATHER ROUNDUP FOR COLORADO
NATIONAL WEATHER SERVICE DENVER/BOULDER CO
200 AM MST SAT DEC 16 2017

NOTE: "FAIR" INDICATES FEW OR NO CLOUDS BELOW 12000 FEET WITH NO
SIGNIFICANT WEATHER AND/OR OBSTRUCTIONS TO VISIBILITY.

COZ001>005-013-030-031-161000-
...NORTHWEST COLORADO...

CITY           SKY/WX    TMP DP  RH WIND       PRES   REMARKS
CRAIG          FAIR       5   0  79 W6        29.95F WCI  -6
HAYDEN         FAIR      20  10  65 E12       29.96F WCI   8
MEEKER         FAIR      21   6  52 CALM      29.95F
RABBIT EARS PA FAIR      25  -6  26 SW7       29.98F WCI  17
STEAMBOAT SPGS FAIR      16   9  74 CALM      29.96F
WALDEN         FAIR      25   3  39 SE8       29.93F WCI  16
$$

COZ006>008-011-161000-
...WEST CENTRAL VALLEYS...

CITY           SKY/WX    TMP DP  RH WIND       PRES   REMARKS
GRAND JUNCTION FAIR      21   7  54 SE6       30.00F WCI  13
MONTROSE       FAIR      20   8  60 SE7       30.03F WCI  11
EAGLE          FAIR       9   5  84 E5        30.05F WCI   1
RIFLE          FAIR      15   4  61 CALM      30.03F
DELTA          FAIR      22   2  42 CALM      30.03F
NUCLA          FAIR      25  -6  26 SE7       30.06S WCI  17
$$

COZ017>023-064>068-161000-
...SOUTHWEST COLORADO...

CITY           SKY/WX    TMP DP  RH WIND       PRES   REMARKS
DURANGO        FAIR      15   9  76 S3        30.02F
CORTEZ         FAIR      12   0  58 E7        30.04F WCI   1
PAGOSA SPRINGS FAIR      20   9  62 CALM      30.04F
TELLURIDE      FAIR      30   1  29 CALM      30.04F
WOLF CREEK PAS FAIR      27  -2  28 S12       30.16F WCI  16
$$

COZ009-010-012-014-032>034-037-058>063-161000-
...CENTRAL COLORADO...

CITY           SKY/WX    TMP DP  RH WIND       PRES   REMARKS
ASPEN          FAIR      14   8  77 SW3       29.98F
BUENA VISTA    FAIR      18   9  68 W5        29.98S WCI  11
COPPER MTN     NOT AVBL
BERTHOUD PASS  FAIR      23  12  63 NW44G52   30.00F WCI   3
COTTONWOOD PAS FAIR      37   1  22 CALM      29.99F
GUNNISON       FAIR       9   2  73 CALM      30.09S
KREMMLING      FAIR       5   0  78 CALM      30.02F
LEADVILLE      FAIR      25   4  40 NE5       29.98F WCI  19
MONARCH PASS   FAIR      27   0  31 W35       30.17S WCI   9
SALIDA         FAIR      30   7  38 N12       30.02F WCI  20
SUNLIGHT       FAIR      28  -9  19 SW12      30.06F WCI  18
WILKERSON PASS FAIR      32   1  27 W13G23    30.03F WCI  22
$$

COZ069>075-161000-
...SAN LUIS VALLEY/SANGRE DE CRISTO MOUNTAINS...

CITY           SKY/WX    TMP DP  RH WIND       PRES   REMARKS
ALAMOSA        FAIR       2  -2  83 SW5       30.04F WCI  -8
DEL NORTE      FAIR      16   6  66 SW10      30.05S WCI   3
LA VETA PASS   FAIR      27  -4  26 SW29        N/A  WCI  11
SAGUACHE       FAIR      21   5  49 N10G16    30.04F WCI  10
$$

COZ035-036-038>040-161000-
...NORTHERN COLORADO FRONT RANGE...

CITY           SKY/WX    TMP DP  RH WIND       PRES   REMARKS
DENVER INTL AP MOCLDY    40  13  33 S9        29.77S
DMNS CITY PARK NOT AVBL
AURORA         MOCLDY    42  12  29 S9        29.78S
FRONT RANGE AP FAIR      38  19  44 S9        29.78S
ERIE MUNI ARPT FAIR      38  14  36 N3        29.82R
BOULDER MUN AP FAIR      50  10  20 NE5       29.76S
CENTENNIAL     MOCLDY    41  15  35 SE8       29.78S
BROOMFIELD     FAIR      43  14  31 S3        29.78S
FORT COLLINS   FAIR      35  22  58 E5        29.76F WCI  31
LONGMONT       FAIR      56   4  12 SW7       29.77S
$$

COZ041-046-047-076>085-087-088-161000-
...PIKES PEAK/PALMER DIVIDE AND SOUTHERN FOOTHILLS...

CITY           SKY/WX    TMP DP  RH WIND       PRES   REMARKS
COLO. SPRINGS  FAIR      36   8  31 N9        29.82F
A. F. ACADEMY  FAIR      31   9  39 N10       29.82F WCI  22
SCHRIEVER AFB  FAIR      36   8  30 CALM      29.82F
CHEYENNE MTN   FAIR      44  11  25 CALM      29.79F
ELLICOTT         N/A    N/A N/A N/A CALM      29.81S
FALCON         FAIR      32   6  33 NW8       29.84F WCI  25
FORT CARSON    FAIR      32  13  45 N9        29.80S WCI  24
LIMON          FAIR      22  14  71 N6        29.78F WCI  14
MONUMENT HILL  FAIR      37  12  35 SW10      29.85S
CANON CITY     FAIR      45  10  24 W24       29.81F
WALSENBURG     FAIR      45   5  19 SW14      29.84F
TRINIDAD       FAIR      32  11  41 W14       29.84F WCI  22
$$

COZ042>045-048>051-090-091-161000-
...NORTHEAST COLORADO...

CITY           SKY/WX    TMP DP  RH WIND       PRES   REMARKS
GREELEY ARPT   FAIR      28  19  69 SE3       29.78R
AKRON          FAIR      36  12  37 W7        29.76R
BURLINGTON     FAIR      31  12  45 SW9       29.76F WCI  23
WRAY           FAIR      30  10  43 W9        29.76S WCI  22
YUMA           FAIR      32  12  43 W13       29.76R WCI  22
STERLING       FAIR      21  14  73 SW7       29.76S WCI  13
HOLYOKE        FAIR      32  18  55 W8        29.76S WCI  25
FORT MORGAN    FAIR      25  15  64 CALM      29.78S
$$

COZ086-089-092>099-161000-
...SOUTHEAST COLORADO...

CITY           SKY/WX    TMP DP  RH WIND       PRES   REMARKS
PUEBLO         FAIR      22  12  65 W5        29.79F WCI  16
LA JUNTA       FAIR      30  14  51 W9        29.79S WCI  22
LAMAR          FAIR      19  12  74 NW3       29.79R
SPRINGFIELD      N/A     30  15  53 SW12      29.80F WCI  20
$$



USA.gov is the U.S. government's official web portal to all federal, state and local government web resources and services.